sat.trackr.live / text

‹ back to catalog

STARLINK-32004

NORAD 60151 · 2024-120S

PAYLOAD ACTIVE UNKNOWN

§ Identity

Operator
Country
US
Launch date
2024-06-27
Launch site
AFETR
Launch vehicle
Mass (kg)
RCS (m²)

Purposes: comms

External: N2YO · Heavens-Above · Gunter

§ Orbital elements

Epoch: 2026-05-24T19:41:33.455040Z

Period
94.11 min
Inclination
53.1604°
Eccentricity
0.0001212
Mean motion
15.30189497 rev/d
Perigee alt
474.4 km
Apogee alt
476.1 km
Semi-major
6,853.4 km
B*
2.5266e-6
RAAN
326.1955°
Arg perigee
92.3279°
Mean anomaly
267.7861°
Rev number
10,811

§ Raw data

STARLINK-320041 60151U 24120S   26144.82052610 -.00000284  00000+0  25266-5 0  99932 60151  53.1604 326.1955 0001212  92.3279 267.7861 15.30189497108118

JSON: /api/v1/satellites/60151 · /tle

For live sub-satellite position, see the globe view (requires WebGL).

§ Visibility from observer

Set your observer location to see the next 7 days of passes ≥ 10°. The values pass through the URL so the page stays shareable.

No JS? Fill the form by hand. The geolocation button needs JavaScript.